EW0139 Weather Reports


Display with metric or nautical units.
time (UTC)temp
F
wind
direction
speed
MPH
gust
MPH
rain 1hr
in
rain 24hr
in
rain mn
in
humidity
%
barometer
mb
20260506211748 55 254 16.0 16.0 0.00 0.00 0.00 26 1011.7
20260506210751 55 235 1.0 16.0 0.00 0.00 0.00 27 1011.9
20260506205756 54 156 5.0 8.0 0.00 0.00 0.00 27 1012.2
20260506204817 54 219 9.0 12.0 0.00 0.00 0.00 26 1012.5
20260506203743 54 213 4.0 16.0 0.00 0.00 0.00 26 1012.5
20260506202740 54 175 6.0 17.0 0.00 0.00 0.00 26 1012.6
20260506201741 53 175 6.0 15.0 0.00 0.00 0.00 26 1012.8
20260506200741 53 252 15.0 17.0 0.00 0.00 0.00 27 1012.9
20260506195746 53 197 6.0 17.0 0.00 0.00 0.00 26 1013.1
20260506194750 53 252 5.0 14.0 0.00 0.00 0.00 28 1013.2
20260506193752 54 178 14.0 14.0 0.00 0.00 0.00 29 1013.5
20260506192752 52 251 9.0 14.0 0.00 0.00 0.00 27 1013.7
20260506191752 51 296 7.0 16.0 0.00 0.00 0.00 33 1012.9
20260506190753 51 278 3.0 13.0 0.00 0.00 0.00 29 1012.9
20260506185759 51 257 3.0 15.0 0.00 0.00 0.00 29 1013.2
20260506184759 51 258 11.0 11.0 0.00 0.00 0.00 29 1013.3
20260506183800 51 319 4.0 10.0 0.00 0.00 0.00 29 1013.4
20260506182741 50 238 5.0 11.0 0.00 0.00 0.00 30 1013.7
20260506181745 50 236 3.0 13.0 0.00 0.00 0.00 29 1014.0
20260506180807 51 269 5.0 5.0 0.00 0.00 0.00 30 1014.3
20260506175746 49 240 2.0 10.0 0.00 0.00 0.00 29 1014.7
20260506174750 49 259 4.0 13.0 0.00 0.00 0.00 29 1014.7
20260506173755 50 220 12.0 13.0 0.00 0.00 0.00 31 1014.9
20260506172754 49 279 5.0 13.0 0.00 0.00 0.00 30 1015.1
20260506171737 48 334 3.0 12.0 0.00 0.00 0.00 30 1015.3
20260506170741 47 300 9.0 11.0 0.00 0.00 0.00 30 1015.5
20260506165742 47 309 4.0 14.0 0.00 0.00 0.00 29 1015.5
20260506164746 47 235 3.0 9.0 0.00 0.00 0.00 30 1015.8
20260506163751 47 230 2.0 12.0 0.00 0.00 0.00 30 1015.9
20260506162752 46 268 7.0 10.0 0.00 0.00 0.00 33 1016.1
20260506161756 45 215 4.0 11.0 0.00 0.00 0.00 31 1016.3
20260506160759 44 291 7.0 9.0 0.00 0.00 0.00 34 1016.6
20260506155759 43 212 3.0 7.0 0.00 0.00 0.00 36 1016.6
20260506154740 43 242 6.0 10.0 0.00 0.00 0.00 36 1016.6
20260506153743 42 212 4.0 6.0 0.00 0.00 0.00 39 1016.8
20260506152747 41 237 3.0 6.0 0.00 0.00 0.00 40 1016.9
20260506151808 40 270 0.0 8.0 0.00 0.00 0.00 40 1017.0
20260506150810 40 231 3.0 4.0 0.00 0.00 0.00 42 1017.0
20260506145749 38 295 0.0 4.0 0.00 0.00 0.00 45 1017.0
20260506144750 37 294 2.0 4.0 0.00 0.00 0.00 49 1016.9
20260506143753 35 331 1.0 5.0 0.00 0.00 0.00 48 1017.0
20260506142754 34 294 2.0 3.0 0.00 0.00 0.00 51 1017.2
20260506141756 33 294 2.0 4.0 0.00 0.00 0.00 52 1017.3
20260506140756 31 309 0.0 4.0 0.00 0.00 0.00 54 1017.4
20260506135740 30 310 0.0 3.0 0.00 0.00 0.00 58 1017.6
20260506134801 28 310 0.0 3.0 0.00 0.00 0.00 62 1017.6
20260506133759 27 310 2.0 3.0 0.00 0.00 0.00 64 1017.8
20260506132741 26 309 2.0 2.0 0.00 0.00 0.00 65 1017.8
20260506131743 24 310 0.0 0.0 0.00 0.00 0.00 68 1017.8
20260506130748 23 310 0.0 0.0 0.00 0.00 0.00 70 1017.7
20260506125748 20 310 0.0 0.0 0.00 0.00 0.00 71 1017.8
20260506124749 19 310 0.0 0.0 0.00 0.00 0.00 73 1017.8
20260506123750 17 310 0.0 0.0 0.00 0.00 0.00 75 1017.8
20260506122757 16 310 0.0 0.0 0.00 0.00 0.00 75 1017.8
20260506121758 16 310 0.0 0.0 0.00 0.00 0.00 75 1017.8
20260506120754 15 310 0.0 2.0 0.00 0.00 0.00 76 1017.7
20260506115812 15 309 1.0 1.0 0.00 0.00 0.00 75 1017.7
20260506114808 15 309 0.0 0.0 0.00 0.00 0.00 75 1017.8
20260506113749 16 310 0.0 0.0 0.00 0.00 0.00 74 1017.7
20260506112807 16 310 0.0 0.0 0.00 0.00 0.00 73 1017.8
20260506111743 17 309 0.0 0.0 0.00 0.00 0.00 72 1017.8
20260506110742 17 309 1.0 2.0 0.00 0.00 0.00 72 1017.8
20260506105742 17 309 0.0 1.0 0.00 0.00 0.00 73 1017.8
20260506104742 17 310 0.0 3.0 0.00 0.00 0.00 72 1017.8
20260506103747 17 310 2.0 3.0 0.00 0.00 0.00 72 1017.6
20260506102746 17 310 0.0 1.0 0.00 0.00 0.00 73 1017.6
20260506101747 17 310 0.0 0.0 0.00 0.00 0.00 71 1017.6
20260506100747 18 309 0.0 2.0 0.00 0.00 0.00 71 1017.7
20260506095751 18 310 1.0 3.0 0.00 0.00 0.00 72 1017.6
20260506094755 18 309 2.0 3.0 0.00 0.00 0.00 73 1017.5
20260506093755 17 310 2.0 2.0 0.00 0.00 0.00 74 1017.5
20260506092754 17 310 0.0 1.0 0.00 0.00 0.00 74 1017.3
20260506091759 18 310 0.0 0.0 0.00 0.00 0.00 73 1017.4
20260506090743 18 309 0.0 0.0 0.00 0.00 0.00 73 1018.3
20260506085803 19 310 0.0 1.0 0.00 0.00 0.00 73 1018.4
20260506084743 19 310 0.0 2.0 0.00 0.00 0.00 71 1018.5
20260506083743 19 310 2.0 3.0 0.00 0.00 0.00 73 1018.4
20260506082743 18 309 0.0 2.0 0.00 0.00 0.00 73 1018.4
20260506081747 19 310 0.0 1.0 0.00 0.00 0.00 72 1018.3
20260506080746 19 310 0.0 0.0 0.00 0.00 0.00 72 1018.3
20260506072755 20 309 0.0 0.0 0.00 0.00 0.00 71 1018.5
20260506071756 21 310 0.0 0.0 0.00 0.00 0.00 70 1018.6
20260506070756 21 309 0.0 2.0 0.00 0.00 0.00 68 1018.6
20260506061808 23 310 0.0 2.0 0.00 0.00 0.00 64 1018.2
20260506060808 23 310 0.0 3.0 0.00 0.00 0.00 64 1018.2
20260506050757 26 309 0.0 2.0 0.00 0.00 0.00 56 1018.1
20260506044755 26 310 2.0 2.0 0.00 0.00 0.00 56 1018.0
20260506043756 27 309 0.0 2.0 0.00 0.00 0.00 56 1017.9
20260506042741 28 309 1.0 3.0 0.00 0.00 0.00 54 1017.9
20260506041801 29 309 1.0 2.0 0.00 0.00 0.00 53 1017.9
20260506040802 29 309 0.0 2.0 0.00 0.00 0.00 51 1017.8
20260506035742 30 310 1.0 3.0 0.00 0.00 0.00 49 1017.8
20260506034747 31 309 3.0 3.0 0.00 0.00 0.00 48 1017.8
20260506033807 32 310 2.0 4.0 0.00 0.00 0.00 46 1017.8
20260506032745 33 310 2.0 5.0 0.00 0.00 0.00 45 1017.8
20260506031745 34 310 3.0 4.0 0.00 0.00 0.00 43 1017.7
20260506030746 35 310 4.0 5.0 0.00 0.00 0.00 41 1017.6
20260506025750 36 309 4.0 5.0 0.00 0.00 0.00 40 1017.4
20260506024750 38 309 4.0 5.0 0.00 0.00 0.00 38 1017.3
20260506023753 39 307 3.0 4.0 0.00 0.00 0.00 37 1017.2
20260506022752 40 307 4.0 5.0 0.00 0.00 0.00 37 1017.1
20260506021757 42 307 6.0 10.0 0.00 0.00 0.00 34 1016.9
20260506020817 43 306 7.0 11.0 0.00 0.00 0.00 32 1016.9
20260506015817 45 309 10.0 15.0 0.00 0.00 0.00 31 1016.8
20260506014816 45 317 13.0 16.0 0.00 0.00 0.00 30 1016.7
20260506013754 46 303 12.0 17.0 0.00 0.00 0.00 30 1016.6
20260506012753 46 294 11.0 17.0 0.00 0.00 0.00 29 1016.6
20260506011800 47 295 12.0 18.0 0.00 0.00 0.00 28 1016.5
20260506010801 47 296 15.0 21.0 0.00 0.00 0.00 29 1016.4
20260506005802 47 304 11.0 17.0 0.00 0.00 0.00 29 1016.4
20260506004741 47 321 16.0 22.0 0.00 0.00 0.00 28 1016.4
20260506003741 48 311 20.0 22.0 0.00 0.00 0.00 29 1016.2
20260506002749 47 305 12.0 22.0 0.00 0.00 0.00 29 1016.4
20260506001751 47 290 12.0 23.0 0.00 0.00 0.00 30 1016.1
20260506000752 48 305 13.0 23.0 0.00 0.00 0.00 29 1016.3
20260505235751 47 292 17.0 24.0 0.00 0.00 0.00 29 1016.2
20260505234759 48 289 17.0 24.0 0.00 0.00 0.00 30 1016.2
20260505233757 48 302 13.0 21.0 0.00 0.00 0.00 30 1016.2
20260505232741 47 292 13.0 20.0 0.00 0.00 0.00 29 1016.1
20260505231740 46 323 13.0 23.0 0.00 0.00 0.00 30 1016.2
20260505230745 47 300 13.0 20.0 0.00 0.00 0.00 30 1016.2
20260505225746 46 323 13.0 27.0 0.00 0.00 0.00 30 1016.3
20260505224747 47 286 10.0 24.0 0.00 0.00 0.00 30 1016.1
20260505223748 47 292 12.0 23.0 0.00 0.00 0.00 28 1016.2
20260505222748 48 315 17.0 21.0 0.00 0.00 0.00 29 1016.2
20260505221752 47 287 17.0 21.0 0.00 0.00 0.00 31 1016.2
20260505220755 47 325 16.0 23.0 0.00 0.00 0.00 32 1016.1
20260505215755 45 300 9.0 23.0 0.00 0.00 0.00 32 1016.3
20260505214755 46 303 17.0 21.0 0.00 0.00 0.00 33 1016.4
20260505213743 45 290 14.0 22.0 0.00 0.00 0.00 33 1016.4
20260505212743 46 325 14.0 23.0 0.00 0.00 0.00 33 1016.6